Weather History for Galveston, TX

Change the Weather History Date:

Wednesday, October 31, 2012

  Actual Average Record
Temperature  
Mean Temperature 71 °F 70 °F  
Max Temperature 80 °F 77 °F 86 °F (2004)
Min Temperature 61 °F 64 °F 39 °F (1993)
Degree Days  
Heating Degree Days 0 1  
Month to date heating degree days 15 6  
Since 1 July heating degree days 15 9  
Cooling Degree Days 6 6  
Month to date cooling degree days 303 299  
Year to date cooling degree days 3749 3192  
Growing Degree Days 20 (Base 50)    
Moisture  
Dew Point 65 °F    
Average Humidity 81    
Maximum Humidity 100    
Minimum Humidity 62    
Precipitation  
Precipitation 0.00 in 0.14 in 5.75 in (1909)
Month to date precipitation 0.51 5.52  
Year to date precipitation 43.48 42.73  
Snow  
Snow 0.00 in - 0.00 in (2002)
Month to date snowfall 0.0  
Since 1 July snowfall 0.0  
Since 1 September snowfall 0.0  
Snow Depth 0.00 in    
Sea Level Pressure  
Sea Level Pressure 30.02 in    
Wind  
Wind Speed 5 mph (SSW)    
Max Wind Speed 15 mph    
Max Gust Speed 17 mph    
Visibility 10 miles    
Events      
T = Trace of Precipitation, MM = Missing Value Source: NWS Daily Summary

Daily Weather History Graph

Daily Weather History Graph

Search for Another Location

Airport:

Trip Planner

Search our weather history database for the weather conditions in past years. The results will help you decide how hot, cold, wet, or windy it might be!

Date:

Astronomy

Oct. 31, 2012 Rise Set
Actual Time 7:31 AM CDT 6:33 PM CDT
Civil Twilight 7:07 AM CDT 6:58 PM CDT
Nautical Twilight 6:39 AM CDT 7:26 PM CDT
Astronomical Twilight 6:11 AM CDT 7:54 PM CDT
Moon 7:54 PM CDT (10/31) 9:05 AM CDT (10/31)
Length of Visible Light 11h 50m
Length of Day
11h 01m
Full, 97% of the Moon is Illuminated
Oct 31
Full
Nov 6
Last Quarter
Nov 13
New
Nov 20
First Quarter
Nov 28
Full

Hourly Weather History & Observations

Time (CDT) Temp. Dew Point Humidity Pressure Visibility Wind Dir Wind Speed Gust Speed Precip Events Conditions
12:52 AM 66.0 °F 59.0 °F 78% 30.04 in 10.0 mi SW 5.8 mph - N/A   Clear
1:52 AM 66.9 °F 60.1 °F 79% 30.03 in 10.0 mi SW 6.9 mph - N/A   Clear
2:52 AM 66.0 °F 60.1 °F 81% 30.03 in 10.0 mi Calm Calm - N/A   Clear
3:52 AM 64.0 °F 62.1 °F 93% 30.02 in 10.0 mi Calm Calm - N/A   Clear
4:52 AM 62.1 °F 60.1 °F 93% 30.02 in 10.0 mi Calm Calm - N/A   Clear
5:52 AM 62.1 °F 61.0 °F 96% 30.02 in 10.0 mi Calm Calm - N/A   Clear
6:52 AM 62.1 °F 61.0 °F 96% 30.02 in 10.0 mi Calm Calm - N/A   Clear
7:52 AM 63.0 °F 62.1 °F 97% 30.03 in 10.0 mi Calm Calm - N/A   Clear
8:52 AM 70.0 °F 64.9 °F 84% 30.05 in 10.0 mi Calm Calm - N/A   Clear
9:52 AM 73.9 °F 66.9 °F 79% 30.06 in 10.0 mi Calm Calm - N/A   Partly Cloudy
10:52 AM 75.9 °F 64.9 °F 69% 30.08 in 10.0 mi WSW 4.6 mph - N/A   Partly Cloudy
11:52 AM 77.0 °F 66.0 °F 69% 30.07 in 10.0 mi South 6.9 mph - N/A   Scattered Clouds
12:52 PM 78.1 °F 64.9 °F 64% 30.04 in 10.0 mi South 11.5 mph - N/A   Scattered Clouds
1:52 PM 79.0 °F 66.0 °F 64% 30.01 in 10.0 mi South 10.4 mph - N/A   Scattered Clouds
2:52 PM 78.1 °F 66.0 °F 66% 29.99 in 10.0 mi SSE 10.4 mph - N/A   Partly Cloudy
3:52 PM 78.1 °F 66.0 °F 66% 29.98 in 10.0 mi South 13.8 mph - N/A   Clear
4:52 PM 77.0 °F 68.0 °F 74% 29.96 in 10.0 mi South 12.7 mph - N/A   Clear
5:52 PM 75.9 °F 66.9 °F 74% 29.97 in 10.0 mi South 11.5 mph - N/A   Clear
6:52 PM 73.9 °F 68.0 °F 82% 29.98 in 10.0 mi South 9.2 mph - N/A   Clear
7:52 PM 73.0 °F 69.1 °F 87% 30.00 in 10.0 mi SSW 5.8 mph - N/A   Clear
8:52 PM 72.0 °F 69.1 °F 91% 30.02 in 10.0 mi SW 3.5 mph - N/A   Clear
9:52 PM 70.0 °F 68.0 °F 93% 30.03 in 10.0 mi SW 4.6 mph - N/A   Clear
10:52 PM 70.0 °F 68.0 °F 93% 30.04 in 10.0 mi SSW 3.5 mph - N/A   Clear
11:52 PM 69.1 °F 68.0 °F 96% 30.04 in 10.0 mi SW 4.6 mph - N/A   Clear